ABS-2A

Last updated on April 24, 2017, 12:17 a.m. UTC

1 41588U 16038A   17112.20778622 -.00000093  00000-0  00000-0 0  9993
2 41588   0.0162 206.7789 0001638  99.2167  53.9892  1.00271277  3194
UTC
Height (km)
Latitude
Longitude
Inclination
Orbital Period
UTC large
Height (km)
Speed (km/s)
/
Latitude / Longitude
Inclination (degrees)
Orbital Period (minutes)
Azimuth
Elevation
Range (km)
Doppler Factor
iOS Compass Heading
iOS Angle

Next 30 passes for location: Hong Kong

Rise time Rise Azimuth (degrees) Set time Set Azimuth (degrees) Duration Max altitude (degrees)

No matching passes for this satellites